Wind_Speed
20 20 22 21 21 21 21 21 21 21 21 20 18 19 20 18 19 20 17 17 20 18 13 11 10 9 9 9 10 13 13 12 13 11 10 10 10 10 14 18 23 24 23 22 20 17 17 17 17 16 17 16 15 15 15 14 13 13 13 12 12 12 12 13 14 15 16 17 17 17 17 17 17 17 19 23 24 25 26 24 23 25 28 28 25 23 22
18 18 19 19 20 21 22 23 23 22 22 22 22 23 22 22 24 25 23 23 25 22 18 17 16 14 12 11 11 12 14 15 16 15 14 13 11 11 13 16 17 16 18 23 24 21 19 19 20 20 20 20 20 19 19 19 18 17 17 16 16 16 16 17 17 16 17 18 17 18 18 18 19 19 20 22 23 24 25 26 27 28 29 27 24 22 23
16 16 16 17 18 19 21 22 21 20 21 22 23 24 23 22 23 24 23 25 26 23 19 18 18 17 17 16 16 16 17 18 19 19 18 17 14 12 13 17 17 12 12 17 20 22 21 19 20 22 21 22 24 23 22 23 23 23 23 22 21 22 22 21 21 21 22 23 23 22 22 21 22 22 22 23 23 24 24 25 26 27 29 29 26 25 26
16 14 14 15 17 19 22 23 22 22 22 22 22 22 22 21 21 21 22 25 25 20 17 19 19 18 18 18 17 18 19 19 21 22 21 18 17 15 14 17 18 13 12 12 12 16 19 18 20 22 21 22 24 24 23 24 25 25 26 26 25 25 24 24 24 24 25 26 26 26 26 26 26 25 24 24 24 25 26 27 27 27 29 31 29 28 28
16 13 12 15 15 15 17 18 18 19 21 21 21 21 22 23 23 23 23 24 23 19 18 18 18 17 19 18 15 14 17 18 19 20 21 20 20 20 18 21 19 13 13 14 13 14 14 15 19 21 21 22 23 22 21 22 23 24 24 25 26 26 25 25 25 25 25 26 26 26 27 27 28 28 27 26 25 25 26 27 28 28 27 28 29 29 28
15 13 13 14 14 12 12 11 11 13 15 16 17 17 18 20 22 24 24 23 21 18 15 14 14 16 17 15 13 15 18 19 18 19 20 20 20 20 21 22 20 15 17 19 18 15 13 15 18 19 20 23 23 21 21 21 21 21 22 23 24 24 24 24 24 24 24 25 25 25 25 25 26 27 27 26 25 25 24 25 26 27 26 26 28 28 28
16 15 14 12 10 11 12 12 12 14 14 14 15 16 15 14 14 17 20 21 19 17 16 15 17 20 18 15 13 13 14 15 15 16 20 19 19 20 21 20 20 21 23 23 20 17 17 18 16 15 20 25 24 22 22 21 20 20 20 20 21 22 23 22 23 23 23 23 24 24 24 23 23 24 24 24 24 24 23 23 23 25 26 26 27 27 29
16 15 14 12 11 13 13 13 14 15 13 12 15 16 14 12 12 13 15 15 15 14 14 14 16 18 18 18 14 9 10 13 14 15 20 21 21 24 23 20 22 24 23 22 20 18 18 17 12 13 20 26 25 23 22 21 21 21 21 21 21 22 23 22 22 23 23 23 23 23 23 23 22 22 22 23 23 23 23 23 23 24 25 26 26 27 29
15 16 17 17 18 18 16 14 14 13 11 10 11 13 12 11 12 14 13 11 11 10 9 10 12 11 10 11 10 8 10 15 14 13 16 19 20 23 21 16 16 21 21 19 18 16 17 17 16 17 22 25 25 23 23 23 23 23 23 23 23 23 23 24 24 24 24 24 24 24 23 23 23 23 23 23 23 24 24 24 24 25 25 27 28 29 29
16 17 16 14 14 13 9 10 12 13 13 13 14 14 14 11 12 15 14 9 7 8 8 9 10 9 7 9 10 12 12 13 11 7 8 12 14 15 14 9 7 10 14 14 12 11 13 15 17 19 23 25 25 24 24 24 24 24 24 24 24 24 24 25 26 26 27 27 26 25 24 23 22 22 22 23 24 24 25 25 26 27 27 28 29 29 28
17 17 14 12 11 8 4 5 10 13 14 13 11 12 11 9 11 14 14 11 9 8 8 7 5 6 7 9 11 12 11 11 10 5 3 6 9 9 9 7 5 8 12 14 12 12 14 14 15 19 22 25 26 25 25 26 25 25 26 26 26 26 26 27 28 28 29 29 29 28 26 24 23 22 22 23 23 24 26 27 29 30 29 29 29 28 28
20 19 18 16 14 9 5 4 5 8 11 8 6 6 4 4 5 6 6 7 9 10 9 8 4 5 7 9 10 10 11 10 8 5 4 6 8 8 7 7 9 14 17 17 15 14 14 13 15 19 23 25 26 27 27 28 28 28 28 28 28 28 29 29 29 30 31 32 32 32 30 28 27 26 26 26 26 27 28 29 29 30 30 30 29 29 30
21 21 20 19 14 10 9 6 4 7 10 7 5 5 3 3 4 4 4 6 8 9 9 9 8 8 9 9 8 8 9 10 10 8 9 9 9 8 9 11 16 20 22 21 19 17 17 18 21 23 25 27 28 29 30 31 31 31 31 31 31 32 32 32 32 33 33 34 34 35 34 33 32 31 31 31 31 31 32 32 31 30 30 30 30 31 32
19 18 19 19 15 10 9 8 6 7 8 5 4 4 4 6 8 7 7 8 8 9 11 10 11 13 12 11 11 9 9 11 12 11 12 12 11 11 12 15 17 18 18 19 19 19 20 22 22 24 26 28 29 31 32 33 34 35 35 35 35 35 35 35 36 37 37 37 37 36 36 36 36 36 35 36 35 35 35 35 34 33 33 32 32 33 33
15 16 15 13 10 7 6 6 4 3 4 5 5 5 5 8 9 9 10 11 10 12 13 12 12 14 13 13 14 14 13 13 14 14 15 14 14 13 14 15 15 14 15 16 18 19 20 20 21 24 27 31 32 33 34 35 35 36 36 36 36 36 37 38 38 39 38 38 38 38 37 38 38 38 38 38 38 37 37 37 36 35 35 35 35 35 34
9 11 10 8 8 9 9 7 7 7 7 9 9 9 9 11 12 12 13 14 14 14 15 14 14 14 15 16 18 18 17 16 16 18 18 17 17 17 17 17 16 16 18 19 20 21 21 20 21 23 26 31 34 35 35 35 35 35 35 35 36 36 37 39 39 39 39 40 39 40 40 40 39 38 39 40 41 40 40 39 38 38 37 37 36 36 34
8 11 12 13 14 13 11 11 12 10 9 10 10 11 13 14 14 15 17 17 16 14 14 16 16 16 17 18 19 21 22 21 19 20 21 20 19 20 21 21 20 19 20 21 22 22 21 21 22 22 24 27 30 32 33 34 35 36 36 36 36 37 37 39 40 41 41 41 41 42 42 41 40 39 40 42 43 43 42 40 39 39 38 37 36 35 34
12 13 13 13 14 13 12 14 14 11 11 12 13 13 15 15 15 17 19 20 20 18 16 16 17 18 18 18 19 21 23 23 22 22 23 23 22 21 22 24 24 23 23 24 24 24 23 23 23 24 24 25 27 29 31 32 34 35 36 36 36 36 36 37 39 40 41 41 42 42 41 41 40 40 42 44 45 44 42 41 41 39 38 36 35 33 32
13 13 11 10 12 14 15 14 13 11 12 14 14 15 15 15 15 16 18 20 23 24 22 21 20 20 21 21 21 22 23 23 23 22 24 25 25 24 23 24 24 24 25 25 25 26 27 26 25 25 25 27 30 32 32 32 34 34 35 35 34 33 33 34 35 37 39 40 40 39 39 40 41 41 42 45 45 43 41 41 39 37 35 34 32 31 29
14 14 12 12 16 19 18 15 12 11 12 14 15 16 16 16 17 18 19 20 22 23 24 24 24 24 23 23 24 24 25 25 24 24 25 25 25 25 23 23 24 25 25 26 26 28 29 27 25 26 27 29 31 33 32 32 33 33 32 32 32 32 33 33 35 36 37 38 39 38 39 41 40 39 41 43 42 39 37 36 35 34 32 30 28 26 24
13 12 12 14 17 16 14 12 12 13 15 16 17 17 18 18 19 20 20 21 22 24 25 25 25 26 26 25 25 26 26 25 25 25 25 25 25 25 24 24 25 26 27 27 28 29 29 28 26 27 29 29 30 31 31 31 31 31 30 31 32 33 33 34 36 37 37 37 38 39 40 39 38 37 38 38 37 35 33 31 31 30 26 23 21 20 19
10 10 11 13 16 15 13 12 14 15 17 19 20 20 21 22 23 24 23 24 25 26 27 28 28 29 30 30 29 30 30 29 29 29 28 27 25 25 26 27 27 27 28 29 30 31 31 29 27 28 28 28 29 30 29 29 30 30 31 33 33 34 34 35 36 37 37 37 38 38 38 37 36 35 35 35 33 31 27 24 22 21 19 18 19 18 16
10 11 13 14 15 16 15 16 18 20 20 21 21 22 23 27 29 29 29 29 30 30 30 31 31 32 32 32 32 33 33 34 34 34 33 32 30 28 28 28 28 28 28 29 30 29 28 27 27 27 27 27 29 30 30 30 31 32 32 34 34 34 35 36 36 36 37 37 37 37 36 35 34 33 32 30 27 23 20 18 18 17 18 19 18 16 14
13 13 14 15 16 17 18 19 20 22 23 24 26 26 27 29 30 30 30 31 31 31 31 30 30 30 32 33 34 35 35 36 36 36 35 35 34 32 31 30 30 29 28 27 27 27 27 27 27 27 27 26 27 29 30 31 32 32 32 33 33 34 35 36 36 36 36 36 36 36 35 34 32 29 25 20 18 17 17 18 20 22 22 20 18 15 13
15 15 16 18 21 22 23 23 23 24 26 28 29 29 29 30 30 31 31 31 30 30 30 30 30 30 32 33 34 34 34 34 34 34 34 33 33 34 34 33 32 31 30 30 29 28 28 27 25 26 27 27 29 30 31 30 29 29 30 31 32 33 34 35 35 35 36 35 34 33 30 27 25 21 17 16 18 22 25 26 26 24 21 18 15 13 13
16 19 20 22 23 25 27 27 27 28 29 30 30 29 30 30 30 30 29 28 28 28 29 30 29 29 28 28 29 29 30 30 29 29 29 30 30 32 32 33 33 33 32 31 31 29 28 27 27 27 27 28 29 31 31 29 28 28 29 30 31 32 33 34 34 32 30 28 25 22 19 18 18 18 17 19 23 26 28 26 23 20 17 15 14 14 14
16 19 23 25 26 27 28 28 28 28 28 28 27 27 27 27 28 27 27 27 27 27 27 27 26 25 23 23 24 25 26 26 26 26 26 26 28 30 31 32 33 33 32 31 31 30 29 28 28 27 27 27 28 27 26 25 25 26 27 28 29 30 30 29 26 22 18 16 15 14 15 15 16 17 17 18 19 19 18 17 15 14 14 13 12 12 11
19 21 25 28 28 28 28 27 25 24 23 23 23 24 25 25 26 26 26 26 25 24 25 24 24 24 25 25 26 26 27 27 27 28 28 27 28 29 31 32 33 32 31 31 30 29 29 28 28 27 26 26 26 24 23 22 22 23 25 26 26 25 23 19 14 10 9 9 12 15 17 18 18 18 18 17 16 15 14 14 14 13 12 10 9 8 7
22 24 27 28 28 27 26 24 21 20 19 19 21 23 24 24 24 23 22 21 21 21 23 23 24 25 27 28 28 28 28 29 29 30 30 30 30 31 32 33 33 32 31 30 30 29 28 28 29 28 26 26 26 24 22 21 21 22 22 21 20 17 14 11 11 14 16 18 20 22 22 22 21 20 19 18 17 15 14 12 11 9 8 7 7 7 6
24 26 27 26 25 25 23 20 19 19 20 20 21 23 23 24 24 22 20 20 20 20 21 22 22 24 26 27 29 30 30 30 30 30 30 30 30 30 31 32 32 32 31 30 29 28 27 27 27 26 25 25 25 23 20 19 19 19 16 13 11 10 12 18 23 25 25 24 23 22 21 21 21 20 20 18 16 14 12 9 8 7 7 7 6 7 7
26 26 24 22 22 21 20 19 19 20 20 20 22 24 25 25 24 21 19 18 18 19 20 21 23 25 26 27 29 30 31 31 31 30 30 30 30 29 28 28 28 28 28 28 26 25 23 23 22 22 22 22 21 19 17 16 17 16 12 9 9 13 17 21 23 25 25 24 24 23 21 20 18 17 16 15 14 13 10 7 6 8 9 8 7 8 8
26 24 21 20 19 19 19 20 20 20 20 22 23 22 19 16 14 13 14 16 17 19 20 21 22 23 24 24 24 24 25 26 26 26 26 27 28 28 28 27 26 25 24 23 23 23 22 21 20 18 18 19 19 16 15 15 16 14 12 10 11 15 18 19 21 23 23 23 23 22 20 17 15 15 14 13 13 12 10 6 5 6 7 6 5 6 7
23 22 21 21 20 20 21 21 21 22 23 22 18 14 11 10 10 12 15 17 18 18 18 18 18 19 18 19 19 19 19 19 19 18 19 20 21 21 22 23 23 21 19 18 19 19 20 19 18 16 16 17 16 15 14 15 16 15 13 11 13 16 16 17 19 22 21 20 20 20 19 16 13 13 13 13 11 11 10 8 7 7 6 4 3 4 4
22 22 22 22 21 21 20 18 17 18 17 13 10 10 12 13 13 14 15 16 16 15 15 15 15 15 16 18 20 19 17 15 13 12 13 14 14 13 13 13 13 13 12 13 15 16 16 16 16 15 15 15 16 15 15 15 16 15 13 13 15 15 13 12 16 19 20 18 18 18 18 17 13 11 11 11 10 9 9 7 7 6 5 4 3 3 3
21 20 19 18 17 16 14 12 11 10 8 7 8 11 12 12 11 12 13 14 13 12 12 12 12 13 16 19 22 19 14 10 8 7 7 7 7 8 7 6 5 5 6 7 8 10 12 13 14 14 14 15 17 17 17 17 17 15 14 15 16 15 12 11 13 16 18 18 18 18 16 14 12 11 11 10 9 8 7 6 5 4 5 4 4 3 2
18 15 13 14 14 12 10 9 8 6 6 7 8 8 8 9 10 11 11 10 9 9 8 9 11 13 15 19 23 22 15 9 5 4 2 1 1 1 2 3 4 6 7 8 7 7 8 11 14 15 15 16 17 19 21 20 18 15 15 16 15 14 14 14 14 14 15 16 16 15 14 13 13 12 11 9 7 6 5 4 3 3 3 4 4 3 2
14 12 12 13 12 10 8 8 7 6 6 5 4 4 6 8 8 6 5 5 6 8 9 11 12 12 14 19 24 25 22 18 14 11 9 9 8 8 7 8 8 8 8 9 9 9 10 11 12 13 14 17 21 24 23 20 17 15 16 16 16 15 15 14 12 11 12 13 13 12 12 12 12 10 8 7 6 5 4 3 3 3 3 3 3 3 2
13 12 12 10 9 7 6 5 4 2 2 3 4 5 5 5 4 5 8 12 15 16 17 18 17 16 17 18 20 22 23 23 21 18 15 14 13 12 12 12 12 10 9 9 9 9 9 9 10 12 17 22 24 24 21 19 16 14 14 16 16 15 15 13 11 11 11 12 11 11 10 10 9 8 7 6 5 4 4 3 3 3 3 3 2 2 1
12 11 9 7 5 3 2 3 3 4 6 6 6 6 8 9 12 15 18 21 23 24 25 26 25 24 24 24 23 21 21 20 20 20 19 18 19 18 18 17 16 14 12 12 11 12 13 15 17 19 21 22 22 20 19 16 13 11 12 13 15 16 15 14 13 12 12 11 11 11 10 9 9 8 7 5 5 5 4 4 3 3 3 2 2 1 1
9 6 4 3 3 4 4 5 6 7 7 7 9 12 15 17 18 20 21 23 25 26 27 28 28 28 30 32 32 31 28 26 24 21 20 20 22 23 23 23 23 21 20 19 19 19 19 19 19 18 18 18 17 16 14 12 11 10 10 10 12 15 15 13 12 11 11 11 11 11 11 10 9 8 7 6 6 5 5 4 4 3 3 2 1 1 2
4 2 4 6 7 7 7 7 7 7 8 10 14 17 18 17 17 18 18 19 21 23 25 26 27 27 28 30 33 34 35 35 34 31 28 27 26 25 24 24 23 22 21 20 19 18 17 16 16 16 17 16 14 12 11 10 9 9 8 7 9 11 14 14 12 11 10 9 9 9 8 8 8 8 8 7 7 6 6 5 4 4 3 2 1 1 3
3 5 7 8 8 8 7 7 7 7 10 14 16 16 15 14 14 15 15 16 17 19 22 23 25 25 26 26 27 28 31 33 34 34 35 35 35 34 32 31 28 26 24 22 19 17 14 13 13 13 12 11 9 8 9 9 9 9 8 8 8 8 10 11 10 8 7 7 8 7 7 7 8 8 8 8 8 7 6 6 5 4 4 3 3 3 5
5 7 8 8 8 9 9 9 10 12 14 15 14 13 12 12 12 12 12 12 14 15 17 18 21 23 24 24 24 24 25 27 27 28 29 31 32 33 34 34 33 31 30 28 26 24 22 20 17 14 11 8 6 5 6 8 9 8 7 7 7 8 7 6 5 5 6 6 7 8 8 8 8 8 9 9 8 8 7 7 7 6 6 6 6 6 8
5 5 6 6 8 9 10 11 12 14 14 12 11 11 11 11 11 11 11 12 12 13 13 14 17 19 20 21 22 23 24 25 25 25 26 26 26 27 29 29 29 28 27 26 25 24 24 23 21 19 16 14 11 10 8 7 6 4 4 5 7 8 6 3 3 5 6 6 6 7 7 8 9 9 10 10 10 10 9 9 9 9 9 9 9 10 11
5 5 5 6 8 9 10 11 11 12 11 10 9 10 10 10 10 11 11 11 12 12 12 13 14 16 16 17 17 19 21 22 23 24 24 24 24 25 26 25 25 24 23 22 21 20 19 18 17 15 14 13 11 10 9 8 6 5 5 4 5 5 4 2 2 3 3 4 4 4 5 7 8 10 10 11 11 11 11 11 11 12 12 12 12 13 13
7 6 7 9 10 11 11 11 10 10 9 9 8 8 8 9 9 9 9 10 10 11 11 12 13 14 14 14 14 15 17 17 18 19 20 21 22 23 23 22 22 22 21 20 19 17 16 15 13 12 11 9 8 7 6 4 4 3 3 3 2 2 2 2 2 3 3 4 4 4 5 6 8 9 10 10 11 11 12 13 14 14 14 15 15 16 16
10 8 9 11 12 12 11 11 10 9 7 7 7 7 7 8 8 8 8 8 8 8 9 11 12 13 13 13 14 14 14 14 15 15 15 16 17 18 18 18 18 18 18 17 16 15 14 12 11 9 7 6 5 3 2 1 0 1 2 3 3 4 4 5 5 6 7 7 7 7 8 9 10 10 11 12 13 13 14 15 16 16 17 17 18 18 18
14 12 11 11 11 11 11 11 11 9 7 6 5 5 6 6 6 6 6 6 6 6 7 8 10 10 10 11 12 12 12 13 13 13 13 13 14 14 14 15 15 14 14 14 13 13 12 11 9 7 6 4 3 2 2 3 3 4 5 6 6 7 8 8 9 10 11 11 12 12 12 13 13 14 14 15 15 16 17 17 18 19 19 19 19 19 19
17 16 15 14 12 11 11 10 10 8 6 5 6 6 6 5 5 5 5 4 4 5 6 6 7 7 8 8 9 9 10 10 11 11 12 12 12 13 13 13 13 12 12 12 12 12 11 11 9 8 6 5 4 4 5 5 6 6 7 8 8 8 9 9 11 12 12 13 14 15 15 16 17 17 17 18 18 19 19 19 20 20 20 20 20 20 20
17 19 19 17 14 13 11 10 9 7 5 7 8 8 7 6 6 5 4 3 2 2 3 3 4 4 5 6 6 7 8 8 9 10 10 11 11 12 12 12 12 12 12 12 12 12 12 11 10 9 8 7 6 6 6 7 7 7 7 8 8 9 9 10 10 11 12 13 13 14 15 16 17 17 18 19 19 20 20 21 21 21 21 21 21 21 21
15 18 21 20 17 14 13 12 11 10 9 9 10 10 9 8 6 5 3 1 1 1 1 1 2 2 3 4 5 5 6 7 7 8 9 9 10 11 11 11 11 11 12 12 12 12 12 11 10 10 9 8 7 6 6 7 7 8 8 8 9 9 9 10 11 12 12 13 13 14 15 16 16 17 17 18 19 19 20 20 21 21 21 21 21 22 22
13 15 19 21 20 18 16 14 14 15 14 10 9 11 12 11 8 6 5 4 4 4 4 4 4 3 3 4 4 4 5 6 7 7 8 9 9 10 10 10 10 11 12 13 13 13 12 12 11 10 10 9 8 7 7 7 7 8 8 8 9 10 10 10 11 12 12 13 13 14 15 16 17 17 18 19 19 20 20 20 20 21 21 21 21 21 21
Wind_Direction
265 267 272 277 278 279 280 279 280 277 273 276 270 262 266 271 272 274 279 287 289 292 301 305 299 289 272 258 245 237 232 232 234 229 223 227 238 252 260 265 269 268 265 261 258 261 267 269 269 270 269 268 272 274 273 271 268 264 262 261 260 260 261 261 262 265 267 267 270 272 273 274 274 270 266 264 265 270 274 273 268 267 268 270 272 277 280
274 272 273 276 274 274 275 274 276 276 272 271 268 266 268 269 270 274 279 279 277 278 285 288 287 280 269 260 251 247 244 241 242 242 237 232 237 244 248 253 260 264 263 261 259 259 264 270 272 273 274 274 272 273 276 277 275 272 268 265 266 268 269 269 269 270 273 274 276 279 278 276 274 271 268 268 268 269 271 273 273 273 275 276 278 281 280
280 277 276 277 274 273 275 275 273 272 272 271 269 268 268 267 269 273 276 277 277 276 277 279 280 277 269 264 259 256 255 250 246 243 237 237 244 244 241 243 243 245 258 263 262 259 259 266 273 274 276 277 274 274 277 279 278 278 277 275 274 274 274 275 274 273 274 276 279 282 283 280 278 276 273 271 271 270 269 269 271 274 277 280 281 282 281
277 279 280 277 277 277 276 277 274 269 269 271 271 270 267 266 270 275 276 277 280 285 283 278 279 278 269 264 265 265 259 253 250 250 245 244 248 242 239 244 241 238 253 261 258 257 259 264 269 271 274 277 277 277 276 276 276 277 279 280 280 281 281 280 279 277 276 276 278 280 282 283 283 282 279 276 273 272 272 272 274 275 277 280 282 280 279
277 280 282 282 288 284 275 276 277 268 263 267 270 269 265 264 268 271 273 275 280 286 285 277 276 272 259 256 265 273 264 248 239 243 245 246 248 245 245 249 245 238 245 250 250 253 254 256 263 271 280 279 277 276 272 270 272 274 275 277 278 280 282 283 283 283 281 280 280 280 280 281 283 283 283 280 277 275 275 275 275 275 275 277 278 278 277
277 282 286 285 281 271 263 272 282 272 263 269 276 274 270 267 266 266 267 272 278 282 280 275 273 269 262 262 273 281 275 260 244 239 241 242 243 242 242 244 240 232 229 233 242 250 248 255 267 276 280 276 272 270 268 268 270 271 272 274 276 277 279 280 281 280 280 280 279 279 279 279 279 280 281 281 280 279 277 276 276 277 276 274 275 277 278
272 279 282 275 264 262 269 276 280 274 266 265 269 271 270 270 273 273 270 270 277 285 285 277 270 265 256 249 257 272 276 269 261 257 253 249 245 244 241 235 227 224 223 227 239 250 253 261 271 269 266 268 269 269 269 270 271 271 273 277 281 283 284 284 283 281 279 277 276 276 276 276 276 276 277 278 279 278 278 277 276 276 276 275 275 276 275
267 269 264 257 263 277 283 280 276 269 260 260 266 267 263 263 272 279 274 270 275 280 281 280 280 275 261 249 250 269 279 264 252 251 248 241 237 238 234 221 217 221 225 229 236 247 255 259 257 250 257 266 268 268 268 269 270 272 275 278 281 284 285 285 283 282 280 278 276 275 274 274 274 274 274 275 275 276 277 276 275 275 276 276 274 273 272
259 263 261 263 272 279 279 273 267 254 238 237 249 254 255 260 269 270 267 272 279 276 271 275 277 272 269 269 258 243 251 253 244 243 246 235 227 228 226 219 220 226 232 239 243 254 261 254 241 242 254 263 265 265 265 266 268 271 274 278 281 283 284 284 282 281 279 278 277 276 276 276 275 275 275 275 275 275 275 275 275 274 273 272 273 274 276
253 261 266 270 274 277 265 248 246 242 235 235 242 256 265 267 266 263 257 256 273 280 280 281 278 268 276 297 278 243 238 246 237 234 246 233 220 219 221 225 237 242 249 253 250 253 258 248 239 243 251 258 261 261 262 264 268 272 274 277 280 281 283 283 283 282 281 279 277 277 277 277 277 278 278 277 277 276 275 275 274 272 271 273 277 281 283
253 256 260 260 261 271 276 253 253 256 255 250 253 269 272 257 255 263 255 234 224 237 248 255 286 306 295 292 282 259 246 241 228 218 235 227 221 224 224 227 251 262 259 253 248 257 264 259 252 251 254 259 261 262 264 266 269 272 274 276 277 279 280 282 283 283 281 278 276 274 273 273 275 277 279 281 282 282 281 279 276 274 274 277 280 282 281
250 250 253 257 259 259 260 274 285 272 264 260 255 261 250 217 238 274 275 258 250 249 251 252 272 310 291 281 282 270 250 236 226 228 249 235 231 240 240 239 247 250 247 247 252 264 267 265 266 266 265 266 267 267 269 271 273 275 275 276 276 277 278 280 282 283 283 280 277 274 272 271 272 274 278 281 284 287 286 283 281 280 280 280 281 281 280
251 250 252 258 258 248 242 254 283 278 275 278 263 253 258 257 267 291 299 293 292 285 284 289 290 283 270 265 277 282 268 260 257 252 247 239 238 249 251 247 246 246 246 250 257 263 266 270 275 277 275 274 273 274 275 275 276 277 278 278 278 278 279 280 282 283 283 282 280 277 274 273 273 274 277 280 283 287 287 284 284 285 285 284 283 281 280
256 257 259 261 260 259 263 271 282 279 282 293 262 245 288 302 298 304 294 286 294 291 284 279 271 267 265 264 266 268 265 266 269 267 257 247 245 252 254 252 250 251 255 262 269 278 286 286 281 278 279 279 278 278 278 279 279 279 279 279 279 279 281 282 283 283 282 281 280 278 276 274 273 273 275 278 280 283 285 284 284 286 285 284 283 281 280
262 264 264 262 263 283 306 314 320 299 293 309 291 264 281 295 290 293 292 288 290 286 280 273 265 265 270 272 268 266 264 263 267 269 266 261 260 261 260 260 262 264 266 269 272 275 277 278 278 281 284 284 282 280 279 279 279 278 278 278 278 278 280 281 282 283 282 281 279 278 277 275 274 273 275 276 277 279 280 282 283 283 282 280 280 280 279
268 264 265 274 293 318 335 331 318 311 303 307 306 292 293 301 300 298 297 293 290 288 286 285 282 279 276 270 265 265 267 268 269 268 264 263 269 273 272 269 267 266 267 269 270 268 267 271 279 284 285 282 280 279 279 279 279 279 279 278 278 278 278 280 281 281 280 279 278 277 277 277 276 277 277 278 278 278 278 280 281 280 279 278 278 278 278
276 274 282 296 304 313 316 292 283 296 306 309 314 307 303 305 302 296 289 280 276 282 287 284 280 279 280 277 273 271 269 267 270 273 267 257 255 261 268 270 268 267 269 270 270 270 272 274 275 277 280 279 276 275 277 279 281 281 281 280 279 278 278 278 277 277 277 277 276 275 276 277 278 279 279 278 278 277 277 278 279 278 277 277 277 277 276
284 278 279 291 301 306 304 288 284 296 305 306 307 301 294 291 284 279 278 271 263 263 273 280 279 277 278 280 281 281 278 274 275 276 273 266 258 256 262 265 263 263 268 270 268 262 257 255 257 259 263 269 272 274 277 280 281 281 280 280 278 277 275 274 272 272 272 272 272 273 274 276 276 277 277 276 275 276 276 276 276 276 277 277 276 274 273
287 283 285 298 301 295 290 286 289 297 299 298 294 284 280 285 284 278 278 277 271 268 274 282 283 281 281 281 280 278 276 277 279 279 278 277 273 269 269 269 266 266 268 271 272 267 259 255 255 254 254 259 267 275 279 281 281 280 280 280 278 276 273 270 269 268 268 269 270 272 274 274 274 274 274 273 274 275 275 275 275 276 275 274 272 271 271
280 282 290 293 284 277 275 280 291 301 299 297 295 288 285 292 294 290 287 286 285 283 284 285 284 283 282 280 279 277 274 272 274 277 278 278 276 274 274 272 269 269 269 268 270 270 267 262 261 262 265 268 273 278 279 279 278 279 279 278 276 272 270 269 269 269 270 272 274 274 274 273 273 274 274 274 274 275 274 272 271 271 270 269 267 266 265
283 283 292 296 289 285 289 295 299 299 294 291 291 291 289 291 293 291 288 283 277 275 276 278 277 278 278 276 275 277 276 270 266 267 269 272 274 275 274 270 265 263 263 263 261 262 264 265 266 270 275 278 278 278 278 277 278 278 277 275 273 273 273 274 274 274 275 276 276 275 274 274 274 274 273 273 273 272 270 268 266 265 263 259 256 256 256
290 288 298 308 308 305 305 300 296 295 293 290 291 292 293 294 293 291 290 287 282 279 278 279 279 280 282 282 280 278 278 275 271 269 266 264 265 266 267 267 263 257 256 257 256 258 264 270 273 275 277 279 278 278 278 277 276 275 274 273 275 276 277 277 277 278 278 276 275 274 275 275 274 273 272 271 270 267 266 264 260 255 250 244 243 246 248
294 292 296 304 305 301 298 297 298 299 297 294 294 294 293 293 292 290 290 291 290 287 285 283 283 283 282 282 281 279 278 277 277 275 271 267 263 260 258 259 259 256 257 259 260 264 269 272 273 276 278 278 277 276 275 275 273 272 273 275 276 277 277 277 277 277 276 275 274 274 274 273 272 271 269 268 265 260 256 253 244 233 226 223 220 219 220
293 295 296 297 296 294 295 297 298 299 298 295 294 293 293 293 292 290 289 289 288 288 287 285 284 282 280 279 279 279 279 277 276 275 273 268 264 261 261 262 263 262 262 262 264 267 270 272 272 273 273 272 272 272 271 272 273 273 274 276 276 276 277 277 276 275 275 275 275 274 272 271 270 269 266 263 256 243 231 224 217 209 204 201 198 197 205
300 301 298 295 294 292 292 293 293 293 294 293 293 294 296 296 292 289 288 288 288 288 288 286 284 281 280 280 280 279 278 277 275 274 273 269 264 261 262 265 265 264 263 264 264 265 267 268 269 269 268 270 273 272 270 270 272 274 277 279 279 279 278 278 277 277 278 277 275 274 272 269 266 263 256 248 237 221 206 198 194 190 186 185 189 199 213
306 302 296 294 296 297 297 295 291 288 289 291 293 294 295 293 291 288 287 288 288 288 288 287 285 283 282 281 279 278 277 277 275 273 273 271 266 261 259 260 260 261 262 264 265 265 266 267 269 270 270 271 272 272 271 270 270 273 277 280 280 279 279 280 281 280 279 276 273 270 263 253 247 241 231 221 212 201 191 184 179 173 172 179 192 205 214
306 303 300 300 302 302 300 297 293 290 290 292 292 292 291 290 290 289 289 289 289 288 286 285 284 284 283 282 280 279 278 277 275 273 271 269 265 262 260 259 260 262 264 265 266 266 267 267 268 269 269 268 269 270 271 273 274 275 277 278 280 282 283 283 281 277 274 269 260 246 230 218 209 202 193 185 180 176 171 166 163 165 173 181 189 197 203
302 302 303 305 306 304 301 300 298 295 294 294 293 292 293 293 294 296 296 293 289 285 283 283 285 285 285 283 282 280 278 277 275 272 269 268 266 264 262 261 261 262 263 264 265 265 266 266 266 266 267 268 268 268 269 273 276 278 280 283 286 287 284 276 264 250 231 211 195 182 173 166 159 156 152 148 146 146 147 150 156 161 166 170 176 186 198
302 302 304 304 304 303 302 302 301 297 295 296 294 293 293 295 298 300 299 293 289 285 284 285 285 286 288 289 288 287 285 280 275 271 269 267 266 265 264 263 262 262 262 262 262 262 262 263 263 263 263 264 265 266 268 271 274 280 285 287 285 279 261 222 178 154 147 146 143 141 139 138 137 135 132 131 132 134 137 142 146 148 156 170 185 198 211
305 305 304 302 301 301 301 299 294 292 294 295 294 294 295 295 295 293 291 288 288 288 289 292 295 295 296 297 297 295 293 287 280 273 269 267 266 265 265 264 264 263 262 262 262 263 264 264 262 260 258 258 259 261 261 264 271 278 279 271 255 228 190 167 151 140 135 133 130 127 127 128 129 130 130 132 134 134 137 145 152 157 173 193 206 211 213
307 305 304 303 300 298 296 292 290 292 295 294 292 293 295 294 291 289 290 293 297 299 301 304 306 305 303 302 299 297 294 289 283 276 270 266 265 265 265 265 264 262 260 260 261 262 261 258 256 252 249 249 252 253 251 257 266 264 249 225 199 176 164 156 147 138 133 130 126 124 125 127 129 130 130 131 132 130 130 142 162 175 188 196 197 197 201
307 305 304 301 294 289 287 285 286 288 288 289 292 296 298 297 294 295 301 307 309 309 308 308 308 307 305 304 302 300 296 292 286 280 272 266 263 262 263 265 266 264 261 259 257 254 251 247 243 239 235 237 239 240 242 251 252 239 218 201 184 170 161 151 141 133 128 126 125 124 122 122 127 130 128 126 127 126 123 123 150 180 194 194 176 176 191
310 308 306 301 294 290 289 286 284 282 282 286 295 306 315 318 315 312 314 317 317 316 315 314 312 312 315 318 320 317 308 299 291 282 275 270 267 263 261 263 265 267 263 255 247 244 241 236 229 222 221 223 224 226 234 239 230 213 198 190 182 172 161 151 145 139 132 130 133 132 125 122 126 133 131 128 131 135 137 147 168 178 177 171 168 180 191
310 309 308 307 304 303 302 298 292 288 285 287 297 309 314 318 319 317 318 319 320 321 319 315 316 324 335 342 343 337 325 311 299 285 275 274 274 271 266 261 260 258 250 238 233 230 226 220 215 211 212 216 222 226 225 216 202 188 179 176 175 170 161 156 157 153 145 139 139 136 132 132 138 143 140 137 139 144 149 163 180 172 150 148 191 202 188
310 310 311 312 312 313 316 317 315 307 294 283 288 296 304 314 323 325 323 322 323 323 319 321 334 348 353 354 356 356 347 328 312 300 289 280 276 273 271 263 245 224 208 204 208 210 210 210 208 203 203 211 218 215 201 184 173 168 165 163 164 162 153 146 153 158 156 150 144 141 139 140 145 149 148 146 146 148 151 163 179 167 148 158 184 188 178
313 316 317 318 316 315 319 329 333 320 296 287 291 302 318 330 333 333 332 331 331 333 338 352 6 7 3 5 12 19 26 34 40 35 27 44 162 202 200 177 166 166 165 163 165 172 183 190 193 196 202 206 199 186 173 162 156 158 161 159 158 159 155 148 147 152 154 150 148 148 149 147 147 151 152 150 149 153 157 164 172 163 149 153 162 167 174
315 317 319 323 324 320 322 327 317 293 284 297 321 347 353 347 341 342 356 19 38 45 46 44 38 30 24 22 23 25 32 43 56 69 83 97 104 111 118 120 122 135 148 152 156 164 174 184 192 197 195 184 171 164 160 157 157 162 166 166 164 164 164 160 153 150 151 154 159 163 160 154 151 153 155 154 156 165 171 169 166 158 149 147 149 151 155
316 314 316 322 322 315 316 325 319 310 4 33 31 23 15 13 28 61 76 79 77 73 69 65 60 55 50 45 39 35 36 40 46 54 67 81 89 92 94 93 93 102 121 135 145 158 167 173 175 170 162 157 155 157 160 163 165 166 168 170 171 172 173 173 170 164 162 165 167 167 164 159 159 162 164 164 171 179 178 173 166 154 149 147 141 134 124
318 318 320 325 322 313 332 14 38 61 69 67 62 65 74 84 89 89 88 86 82 77 74 72 69 66 65 64 60 56 53 53 54 55 61 70 78 82 85 87 89 95 105 112 118 127 133 138 141 142 142 144 150 157 163 165 163 159 159 165 173 179 180 178 176 174 174 171 169 169 171 171 171 174 177 181 188 187 177 171 166 159 156 154 141 104 8
326 334 352 23 50 56 55 60 71 80 84 87 93 97 98 98 96 92 88 84 82 80 78 75 72 71 70 70 68 67 66 67 68 68 70 76 84 91 95 97 99 100 102 105 110 117 123 129 133 135 137 143 149 154 155 152 149 148 153 164 178 185 186 182 178 181 183 181 177 179 181 178 178 182 187 191 192 189 182 179 178 176 173 167 137 34 358
339 35 68 74 75 72 74 84 93 99 103 106 109 108 105 101 97 93 88 85 83 82 79 77 75 73 72 72 72 71 70 70 70 71 73 76 82 90 95 98 100 101 101 102 105 111 118 125 131 135 140 145 147 146 144 141 138 140 146 154 165 175 182 185 188 194 196 192 189 190 191 190 191 196 199 200 201 199 194 193 193 194 201 209 229 329 337
80 94 94 94 93 92 92 97 103 111 115 115 113 110 105 100 95 92 90 88 85 83 82 81 79 76 74 73 74 74 75 75 74 74 74 74 75 77 79 80 82 83 83 83 85 89 97 107 119 130 140 144 140 137 140 139 133 130 136 141 143 152 167 180 192 200 199 192 192 200 207 210 212 212 210 209 209 208 206 209 213 216 225 241 269 300 314
118 107 101 103 107 108 106 106 110 116 119 118 113 108 104 100 96 93 91 87 83 81 81 81 80 78 76 75 75 75 77 79 79 78 77 76 76 75 75 75 75 74 74 73 74 75 77 79 82 86 90 93 93 100 122 135 137 139 147 155 155 153 156 167 183 195 196 196 200 207 213 219 222 220 218 217 216 216 218 222 227 233 243 258 275 289 299
148 125 109 106 113 116 114 113 117 120 119 117 112 106 102 100 97 93 90 86 82 79 77 78 80 80 79 77 77 77 78 79 79 79 78 77 76 76 76 75 75 75 74 73 72 72 72 72 73 75 76 75 75 78 87 102 118 131 143 157 164 168 174 184 189 190 197 206 209 209 213 219 221 220 221 222 224 226 229 234 239 247 255 264 273 283 292
183 161 142 135 134 131 125 122 124 124 119 114 111 107 103 100 97 93 89 87 85 83 80 79 80 81 81 79 78 78 78 77 77 77 76 75 74 74 73 72 72 71 71 70 69 69 69 69 69 70 72 73 74 76 78 81 87 96 105 123 146 167 187 204 193 181 192 205 208 206 212 220 221 223 225 228 231 235 240 244 248 253 258 266 274 281 288
207 193 171 158 150 146 141 136 133 130 125 121 118 113 107 103 102 100 99 97 93 90 89 86 83 82 81 80 78 78 77 76 76 76 76 76 74 72 70 69 67 64 63 62 61 60 60 62 62 61 62 64 65 66 68 71 77 90 107 124 142 160 186 215 227 228 230 231 226 222 226 230 233 235 237 240 243 246 248 250 253 257 262 268 275 281 287
211 204 187 170 160 160 160 155 149 147 146 140 133 126 121 120 119 115 111 105 98 92 90 88 85 84 82 79 77 76 75 75 76 76 75 74 74 72 70 68 66 62 59 57 54 51 50 49 49 49 49 50 52 55 55 41 304 258 243 234 231 236 241 246 250 252 253 252 249 245 242 243 245 246 246 248 249 251 253 255 259 262 266 271 277 282 286
216 210 199 189 180 177 179 178 171 166 165 166 163 155 151 147 140 127 115 105 96 89 85 83 81 81 79 77 75 73 72 71 71 71 69 69 69 68 66 63 61 58 55 51 47 44 40 36 32 28 23 14 359 324 280 261 252 249 251 252 252 252 250 250 251 253 254 255 255 255 253 253 253 253 254 255 256 257 259 261 263 266 270 274 277 280 283
222 217 212 207 201 194 194 198 195 185 184 199 201 188 178 174 163 142 125 112 98 84 77 75 74 71 69 68 66 64 64 63 62 60 60 59 57 56 56 55 53 49 45 42 37 32 27 21 15 8 359 342 322 298 281 270 260 254 252 253 255 256 257 258 258 258 257 257 258 258 258 257 257 258 259 260 261 263 265 267 268 271 273 275 277 279 281
228 222 218 216 212 206 208 216 215 205 216 237 232 213 198 193 184 164 140 124 111 86 67 62 58 52 48 49 49 47 48 51 51 49 47 47 45 43 43 42 39 36 34 31 27 22 16 11 4 357 348 338 324 309 295 285 278 273 268 265 264 264 264 264 265 265 265 266 266 265 264 263 263 263 264 265 266 267 269 270 272 274 275 276 278 279 280
236 227 222 220 218 216 219 224 219 211 218 235 235 222 213 210 205 195 192 215 260 282 323 345 358 8 12 14 16 19 22 25 29 31 31 31 32 32 30 29 27 25 21 19 16 11 8 5 0 354 349 343 335 323 309 298 292 289 286 284 281 278 275 273 272 271 270 270 271 271 272 272 272 272 272 272 272 273 273 274 275 276 277 278 279 279 280
245 235 228 226 223 222 223 223 219 216 221 231 229 219 215 217 218 217 224 244 266 277 290 302 307 312 324 335 341 351 359 2 5 11 15 15 17 18 18 17 16 15 13 10 6 2 359 358 356 352 349 345 340 333 324 313 305 298 295 292 289 287 284 282 280 279 278 277 275 273 273 273 273 273 274 274 275 276 277 277 278 278 278 279 279 280 280
Height
3061 3062 3062 3062 3062 3062 3062 3062 3061 3062 3062 3063 3063 3063 3065 3066 3065 3063 3065 3067 3067 3067 3069 3069 3070 3071 3071 3072 3073 3072 3073 3073 3073 3073 3074 3074 3074 3073 3072 3071 3070 3071 3072 3073 3074 3074 3075 3075 3076 3076 3077 3077 3078 3078 3079 3080 3080 3081 3081 3081 3081 3082 3082 3082 3083 3084 3084 3085 3086 3086 3087 3087 3088 3088 3089 3089 3090 3090 3091 3091 3091 3090 3089 3090 3092 3094 3096
3059 3060 3060 3060 3060 3060 3060 3060 3060 3060 3061 3061 3061 3062 3063 3064 3063 3062 3064 3065 3065 3066 3068 3068 3069 3070 3070 3070 3071 3071 3072 3072 3072 3072 3072 3073 3073 3073 3072 3070 3069 3069 3068 3069 3070 3071 3072 3073 3073 3074 3074 3075 3076 3077 3077 3078 3078 3079 3080 3080 3080 3080 3081 3080 3081 3081 3081 3082 3083 3084 3085 3085 3086 3086 3087 3087 3087 3087 3087 3088 3088 3087 3087 3088 3089 3091 3091
3058 3058 3058 3058 3059 3059 3058 3057 3058 3058 3059 3059 3059 3060 3061 3062 3061 3061 3063 3062 3062 3064 3066 3066 3067 3067 3068 3068 3069 3070 3070 3071 3071 3070 3070 3071 3072 3073 3071 3069 3068 3067 3066 3066 3066 3067 3069 3069 3070 3071 3072 3072 3072 3074 3075 3075 3075 3076 3076 3077 3078 3078 3078 3078 3079 3079 3079 3079 3080 3081 3081 3082 3082 3083 3083 3084 3084 3084 3085 3085 3085 3085 3084 3084 3085 3087 3087
3056 3056 3057 3057 3057 3057 3055 3054 3055 3056 3057 3057 3058 3058 3059 3059 3060 3060 3060 3059 3059 3062 3063 3064 3064 3065 3065 3066 3066 3067 3067 3067 3068 3068 3068 3069 3069 3070 3070 3067 3066 3066 3065 3064 3063 3064 3066 3067 3066 3067 3069 3069 3069 3071 3072 3072 3072 3072 3073 3073 3074 3074 3075 3075 3075 3076 3076 3076 3077 3077 3078 3078 3079 3080 3080 3081 3081 3081 3082 3082 3082 3082 3081 3080 3081 3082 3083
3055 3055 3056 3056 3056 3055 3053 3053 3054 3054 3054 3055 3055 3056 3057 3058 3058 3058 3057 3058 3059 3061 3061 3061 3061 3061 3061 3062 3063 3063 3062 3062 3063 3065 3066 3067 3067 3067 3067 3066 3065 3065 3065 3063 3061 3061 3063 3063 3063 3064 3065 3066 3066 3067 3068 3069 3069 3070 3070 3070 3071 3071 3071 3071 3072 3072 3072 3073 3073 3074 3074 3074 3075 3076 3076 3077 3077 3078 3078 3078 3078 3078 3078 3078 3077 3078 3079
3054 3054 3055 3055 3054 3051 3050 3051 3052 3052 3052 3053 3053 3053 3054 3055 3056 3055 3055 3056 3058 3058 3058 3058 3058 3057 3058 3059 3060 3061 3060 3059 3060 3061 3061 3063 3063 3064 3064 3063 3063 3063 3062 3059 3057 3058 3060 3060 3060 3062 3062 3061 3063 3064 3065 3065 3066 3067 3067 3067 3067 3068 3068 3069 3069 3069 3069 3069 3070 3070 3070 3071 3071 3071 3072 3073 3073 3074 3074 3074 3074 3074 3075 3075 3074 3074 3074
3053 3053 3054 3053 3050 3047 3048 3050 3050 3050 3050 3051 3051 3051 3051 3052 3052 3053 3054 3055 3055 3055 3056 3056 3055 3054 3056 3056 3056 3057 3057 3057 3058 3058 3058 3060 3060 3060 3059 3059 3059 3058 3057 3056 3056 3056 3057 3057 3058 3060 3059 3058 3059 3061 3062 3062 3063 3064 3064 3064 3064 3064 3065 3065 3065 3066 3066 3066 3066 3067 3067 3067 3068 3068 3068 3069 3069 3070 3070 3071 3071 3070 3070 3071 3071 3070 3069
3052 3052 3052 3050 3046 3046 3048 3049 3048 3048 3048 3049 3049 3049 3050 3050 3050 3050 3051 3052 3053 3053 3054 3054 3053 3052 3052 3052 3053 3055 3055 3055 3055 3054 3054 3055 3055 3054 3054 3055 3054 3053 3053 3053 3054 3054 3054 3054 3056 3056 3056 3055 3057 3059 3059 3060 3061 3061 3061 3062 3062 3062 3062 3062 3062 3062 3062 3063 3063 3063 3064 3064 3064 3065 3065 3065 3066 3066 3066 3066 3067 3067 3066 3066 3066 3066 3065
3050 3049 3048 3046 3045 3045 3047 3046 3046 3045 3045 3047 3047 3047 3048 3049 3049 3049 3049 3050 3051 3051 3052 3052 3050 3048 3049 3050 3052 3053 3052 3051 3051 3050 3050 3051 3050 3049 3051 3051 3051 3050 3050 3051 3051 3051 3051 3052 3052 3053 3053 3053 3054 3056 3057 3057 3058 3058 3058 3059 3059 3059 3059 3059 3059 3059 3060 3060 3060 3060 3060 3061 3061 3061 3061 3062 3062 3062 3062 3062 3062 3062 3062 3062 3061 3062 3062
3048 3048 3046 3045 3045 3044 3043 3043 3043 3043 3043 3045 3045 3045 3047 3047 3047 3046 3047 3048 3049 3049 3049 3048 3046 3046 3048 3049 3050 3050 3049 3048 3048 3048 3049 3049 3048 3048 3049 3049 3048 3048 3048 3049 3049 3049 3048 3049 3049 3050 3050 3051 3052 3053 3054 3054 3055 3055 3056 3056 3056 3056 3056 3056 3056 3056 3056 3056 3057 3057 3057 3057 3058 3058 3058 3058 3058 3058 3058 3058 3058 3058 3058 3058 3058 3059 3060
3046 3047 3045 3044 3044 3043 3042 3042 3041 3041 3042 3043 3044 3045 3045 3045 3044 3044 3045 3045 3045 3045 3045 3044 3045 3046 3048 3048 3047 3047 3047 3045 3045 3046 3047 3047 3047 3047 3047 3047 3047 3047 3047 3046 3046 3045 3045 3046 3046 3046 3047 3048 3049 3049 3050 3051 3052 3052 3052 3053 3053 3053 3053 3053 3053 3053 3053 3053 3053 3053 3054 3054 3054 3054 3054 3054 3054 3054 3054 3053 3053 3054 3055 3055 3055 3055 3055
3044 3045 3044 3043 3043 3042 3041 3041 3041 3040 3040 3042 3043 3044 3043 3042 3042 3043 3044 3044 3044 3043 3043 3044 3044 3046 3047 3046 3045 3044 3044 3044 3044 3044 3045 3045 3045 3045 3045 3045 3045 3044 3044 3043 3043 3043 3043 3044 3043 3044 3044 3045 3045 3046 3046 3047 3048 3048 3049 3049 3049 3049 3049 3049 3049 3049 3049 3049 3048 3049 3049 3050 3050 3050 3050 3050 3050 3050 3049 3049 3049 3050 3051 3051 3051 3051 3051
3042 3042 3042 3042 3042 3040 3040 3040 3040 3039 3040 3041 3042 3042 3041 3040 3041 3041 3042 3042 3043 3043 3043 3043 3043 3044 3043 3043 3042 3043 3043 3043 3042 3042 3042 3042 3042 3042 3043 3042 3041 3040 3040 3041 3040 3040 3040 3041 3041 3041 3041 3042 3042 3042 3042 3042 3043 3044 3044 3045 3045 3045 3045 3045 3045 3045 3045 3045 3044 3044 3045 3045 3046 3046 3046 3046 3046 3046 3045 3045 3046 3046 3047 3047 3047 3046 3046
3040 3040 3040 3040 3040 3039 3038 3038 3038 3038 3039 3040 3040 3039 3040 3039 3040 3040 3040 3040 3040 3040 3040 3040 3040 3040 3040 3039 3039 3040 3040 3040 3040 3039 3039 3038 3038 3039 3039 3039 3038 3038 3038 3039 3038 3038 3038 3037 3037 3038 3038 3038 3038 3038 3038 3038 3039 3039 3040 3040 3040 3040 3040 3040 3040 3040 3040 3040 3040 3040 3040 3040 3041 3041 3041 3041 3041 3041 3040 3041 3042 3042 3042 3042 3042 3042 3042
3040 3039 3039 3039 3038 3038 3037 3037 3037 3038 3039 3039 3038 3037 3038 3038 3037 3038 3038 3038 3038 3038 3037 3036 3036 3037 3037 3036 3036 3036 3036 3036 3037 3037 3036 3036 3035 3036 3035 3035 3035 3036 3036 3036 3036 3036 3036 3035 3034 3034 3034 3034 3034 3034 3034 3035 3035 3035 3035 3036 3036 3036 3035 3035 3035 3035 3035 3035 3035 3035 3035 3035 3035 3036 3036 3036 3036 3037 3036 3036 3037 3038 3037 3037 3037 3037 3038
3038 3038 3038 3037 3037 3037 3037 3037 3037 3037 3037 3037 3036 3036 3036 3036 3036 3036 3036 3036 3035 3035 3034 3034 3034 3033 3033 3033 3032 3032 3032 3033 3033 3033 3032 3033 3033 3033 3033 3032 3032 3033 3033 3033 3033 3032 3032 3032 3032 3031 3030 3029 3029 3030 3030 3030 3031 3031 3031 3031 3031 3031 3031 3030 3030 3030 3030 3030 3030 3030 3029 3030 3030 3031 3031 3031 3030 3031 3032 3032 3032 3032 3032 3032 3032 3032 3033
3037 3037 3037 3037 3037 3037 3037 3036 3036 3035 3035 3035 3035 3035 3035 3035 3035 3034 3033 3032 3032 3031 3031 3030 3030 3030 3030 3029 3029 3028 3028 3028 3029 3029 3029 3029 3028 3029 3029 3029 3029 3029 3029 3029 3029 3029 3029 3029 3029 3028 3027 3026 3025 3025 3025 3025 3025 3026 3026 3026 3026 3026 3026 3026 3025 3025 3024 3024 3024 3024 3024 3025 3025 3026 3026 3025 3024 3024 3026 3027 3027 3027 3027 3027 3027 3027 3028
3036 3036 3036 3037 3037 3036 3035 3034 3034 3034 3034 3034 3034 3033 3032 3032 3031 3030 3029 3028 3028 3027 3026 3026 3026 3026 3026 3026 3026 3025 3024 3024 3024 3025 3025 3024 3024 3024 3025 3025 3025 3025 3025 3024 3024 3024 3024 3024 3024 3024 3023 3022 3021 3020 3021 3021 3020 3020 3021 3021 3021 3021 3021 3021 3020 3020 3019 3019 3019 3019 3019 3020 3020 3020 3020 3018 3018 3019 3021 3021 3021 3022 3022 3022 3022 3023 3023
3034 3034 3034 3035 3035 3033 3031 3031 3031 3032 3032 3032 3031 3030 3029 3028 3027 3026 3025 3025 3024 3024 3023 3022 3022 3022 3022 3022 3022 3021 3020 3020 3020 3020 3020 3020 3020 3020 3020 3021 3021 3021 3021 3020 3019 3019 3018 3018 3019 3018 3018 3017 3016 3016 3016 3016 3016 3016 3015 3015 3016 3015 3015 3015 3015 3014 3014 3013 3014 3015 3015 3014 3014 3015 3014 3012 3012 3014 3015 3015 3016 3016 3017 3017 3018 3018 3019
3033 3032 3033 3033 3031 3029 3029 3029 3029 3029 3030 3029 3028 3026 3025 3025 3024 3023 3023 3022 3022 3021 3020 3019 3019 3018 3018 3018 3017 3017 3016 3015 3015 3016 3016 3016 3016 3016 3016 3017 3017 3017 3016 3016 3015 3014 3013 3013 3013 3012 3012 3012 3012 3012 3012 3012 3011 3011 3011 3010 3010 3009 3009 3010 3009 3009 3009 3009 3009 3010 3009 3008 3009 3009 3008 3007 3007 3009 3009 3010 3011 3011 3012 3013 3013 3014 3015
3030 3031 3031 3029 3027 3026 3027 3028 3028 3027 3026 3025 3023 3023 3022 3021 3021 3020 3019 3019 3018 3017 3016 3015 3014 3013 3012 3012 3012 3012 3011 3010 3010 3010 3011 3011 3011 3012 3012 3012 3012 3011 3011 3011 3010 3008 3007 3008 3008 3007 3007 3007 3007 3007 3007 3007 3006 3006 3006 3005 3005 3004 3004 3005 3004 3003 3004 3004 3003 3003 3002 3003 3003 3004 3002 3002 3002 3003 3004 3005 3006 3006 3008 3009 3009 3010 3012
3029 3029 3029 3027 3026 3025 3026 3026 3025 3024 3023 3021 3020 3019 3018 3017 3016 3015 3014 3013 3012 3012 3011 3010 3010 3008 3007 3007 3007 3006 3005 3005 3004 3005 3005 3005 3005 3006 3007 3006 3006 3005 3005 3004 3003 3003 3003 3003 3003 3003 3003 3003 3003 3003 3003 3003 3002 3001 3001 3000 3000 3000 3000 2999 2999 2998 2999 2998 2997 2996 2996 2997 2998 2998 2998 2997 2998 2998 2999 3001 3002 3003 3004 3005 3007 3008 3010
3027 3027 3026 3026 3025 3023 3023 3022 3021 3020 3019 3018 3017 3016 3015 3013 3012 3011 3010 3008 3008 3007 3007 3006 3005 3004 3003 3002 3001 3000 3000 2999 2999 2999 2999 2999 3000 3000 3000 3000 2999 2999 2999 2999 2998 2999 2999 2999 2999 3000 3000 2999 2999 2998 2998 2998 2997 2997 2996 2996 2996 2996 2995 2994 2994 2993 2993 2992 2991 2991 2991 2991 2992 2993 2993 2993 2993 2995 2996 2998 2999 3000 3002 3004 3005 3007 3009
3025 3024 3024 3023 3022 3020 3020 3019 3018 3017 3016 3015 3013 3012 3011 3010 3008 3007 3006 3005 3003 3002 3002 3001 3001 2999 2998 2997 2996 2995 2994 2994 2994 2993 2993 2993 2994 2994 2994 2994 2994 2994 2994 2994 2994 2994 2995 2995 2995 2995 2995 2995 2994 2994 2993 2993 2992 2992 2992 2992 2992 2991 2990 2989 2989 2988 2987 2986 2985 2985 2985 2985 2986 2987 2988 2989 2991 2992 2994 2996 2997 2999 3000 3002 3004 3005 3007
3023 3022 3021 3020 3019 3017 3016 3016 3015 3014 3012 3011 3009 3008 3007 3005 3004 3002 3001 3001 3000 2998 2997 2996 2995 2994 2993 2992 2991 2990 2989 2988 2988 2987 2986 2986 2987 2988 2988 2989 2989 2989 2989 2989 2989 2990 2990 2991 2991 2991 2991 2991 2990 2989 2989 2989 2989 2989 2989 2988 2987 2986 2985 2984 2983 2982 2981 2980 2980 2980 2980 2981 2982 2983 2985 2987 2988 2990 2991 2993 2995 2997 2999 3001 3003 3005 3007
3021 3019 3018 3016 3016 3015 3013 3012 3011 3010 3008 3007 3006 3005 3003 3001 3000 2998 2998 2997 2996 2994 2993 2991 2990 2989 2988 2987 2986 2985 2984 2983 2982 2982 2981 2981 2981 2982 2982 2983 2983 2983 2983 2984 2985 2986 2986 2987 2987 2987 2987 2987 2986 2985 2985 2985 2986 2986 2985 2984 2983 2981 2980 2979 2977 2976 2975 2975 2975 2976 2977 2978 2980 2981 2983 2985 2987 2988 2989 2991 2993 2996 2998 3000 3003 3004 3006
3018 3017 3014 3013 3013 3012 3010 3008 3007 3006 3005 3003 3002 3001 2999 2998 2996 2995 2995 2993 2992 2990 2989 2987 2986 2985 2984 2983 2981 2980 2979 2978 2978 2978 2977 2977 2976 2976 2977 2977 2978 2978 2979 2979 2980 2981 2982 2983 2983 2983 2983 2983 2982 2982 2982 2982 2982 2982 2981 2980 2979 2977 2976 2974 2973 2972 2972 2972 2973 2975 2976 2978 2979 2981 2983 2985 2987 2989 2991 2992 2995 2997 2999 3001 3003 3004 3005
3016 3014 3012 3010 3009 3008 3006 3005 3004 3003 3001 3000 2999 2997 2996 2995 2993 2992 2991 2989 2987 2986 2985 2984 2982 2981 2979 2978 2977 2976 2975 2974 2974 2973 2972 2972 2972 2972 2972 2972 2973 2973 2974 2975 2976 2977 2978 2979 2979 2980 2980 2979 2979 2979 2979 2980 2979 2978 2977 2976 2975 2973 2972 2971 2971 2971 2971 2972 2974 2975 2977 2979 2980 2982 2984 2986 2988 2990 2992 2994 2996 2998 3000 3001 3003 3004 3005
3013 3012 3010 3008 3007 3005 3003 3002 3001 3000 2999 2997 2996 2994 2993 2991 2990 2989 2987 2985 2984 2983 2982 2981 2979 2978 2976 2974 2973 2971 2970 2969 2968 2968 2967 2967 2967 2967 2967 2967 2968 2968 2969 2970 2971 2973 2973 2974 2975 2976 2976 2975 2975 2976 2977 2977 2977 2976 2974 2973 2972 2971 2970 2970 2971 2972 2973 2974 2975 2977 2978 2980 2982 2984 2986 2988 2990 2992 2994 2996 2998 2999 3001 3001 3002 3003 3004
3010 3009 3007 3005 3004 3002 3001 3000 2998 2997 2996 2995 2993 2991 2990 2988 2987 2986 2984 2983 2981 2980 2979 2977 2976 2974 2972 2970 2968 2966 2965 2963 2962 2961 2961 2961 2961 2961 2961 2962 2962 2963 2964 2965 2967 2968 2969 2970 2971 2971 2972 2972 2972 2973 2974 2975 2975 2974 2974 2973 2972 2971 2971 2972 2972 2972 2974 2975 2977 2979 2981 2982 2984 2986 2988 2990 2992 2994 2996 2997 2999 3000 3001 3001 3002 3003 3004
3007 3006 3004 3002 3001 2999 2998 2997 2995 2994 2993 2991 2990 2989 2987 2986 2984 2983 2982 2980 2979 2978 2976 2975 2973 2971 2969 2967 2964 2962 2959 2957 2955 2955 2954 2955 2955 2955 2956 2956 2957 2958 2959 2961 2962 2964 2965 2966 2967 2967 2968 2968 2969 2971 2972 2973 2973 2973 2973 2973 2973 2973 2974 2974 2974 2975 2976 2977 2979 2981 2983 2985 2987 2989 2990 2992 2993 2995 2997 2998 2999 3000 3000 3001 3002 3003 3004
3004 3002 3001 2999 2998 2996 2995 2994 2993 2991 2990 2989 2988 2987 2985 2983 2982 2981 2980 2979 2977 2976 2974 2972 2970 2968 2966 2963 2960 2957 2954 2951 2949 2948 2948 2948 2949 2950 2951 2951 2952 2953 2955 2956 2958 2959 2960 2961 2963 2964 2965 2965 2967 2969 2970 2971 2972 2972 2973 2974 2974 2975 2975 2976 2977 2978 2979 2980 2981 2983 2985 2987 2989 2990 2992 2993 2995 2996 2997 2999 2999 2999 3000 3001 3001 3002 3003
3000 2999 2998 2996 2994 2993 2992 2991 2990 2989 2987 2986 2986 2985 2983 2982 2981 2980 2979 2977 2976 2974 2972 2970 2968 2966 2963 2960 2957 2954 2950 2947 2945 2944 2944 2944 2944 2945 2946 2947 2948 2949 2950 2952 2953 2955 2956 2958 2960 2961 2962 2963 2965 2967 2969 2970 2971 2972 2973 2974 2975 2976 2977 2978 2979 2980 2981 2982 2984 2984 2985 2987 2990 2991 2992 2994 2995 2996 2998 2999 2999 2999 3000 3001 3001 3002 3002
2998 2997 2995 2993 2992 2990 2989 2988 2987 2986 2985 2985 2985 2984 2982 2981 2980 2979 2978 2976 2974 2972 2970 2969 2967 2964 2962 2959 2955 2950 2946 2944 2942 2941 2941 2941 2942 2943 2943 2944 2945 2946 2947 2948 2950 2951 2953 2955 2958 2959 2961 2963 2965 2966 2968 2969 2970 2972 2973 2975 2976 2978 2979 2980 2981 2982 2983 2984 2985 2986 2986 2988 2990 2992 2993 2994 2996 2997 2998 2999 2999 3000 3001 3002 3001 3002 3002
2997 2995 2994 2992 2990 2988 2987 2985 2984 2984 2983 2984 2983 2983 2982 2981 2979 2978 2977 2975 2973 2971 2970 2968 2965 2963 2961 2958 2954 2949 2945 2942 2941 2940 2940 2940 2941 2941 2942 2943 2944 2945 2946 2947 2948 2950 2952 2954 2956 2958 2960 2962 2964 2966 2967 2969 2971 2973 2974 2976 2977 2979 2980 2981 2982 2983 2984 2985 2986 2987 2988 2989 2991 2992 2994 2995 2996 2997 2998 2999 2999 3000 3001 3001 3001 3002 3002
2995 2994 2992 2991 2989 2988 2986 2985 2984 2983 2983 2983 2983 2982 2981 2980 2979 2978 2976 2975 2973 2971 2969 2967 2965 2963 2961 2958 2954 2949 2945 2943 2942 2941 2941 2941 2941 2942 2942 2943 2944 2945 2946 2948 2949 2950 2952 2954 2956 2958 2960 2962 2963 2966 2968 2970 2972 2974 2976 2977 2979 2980 2981 2982 2983 2984 2985 2986 2987 2989 2989 2990 2991 2993 2994 2996 2997 2997 2998 2999 2999 3000 3000 3001 3001 3002 3002
2993 2992 2991 2990 2988 2987 2986 2985 2984 2984 2983 2983 2982 2982 2981 2980 2979 2978 2977 2975 2973 2972 2970 2968 2966 2964 2962 2958 2955 2951 2948 2945 2944 2943 2943 2943 2943 2943 2944 2945 2945 2947 2948 2949 2950 2952 2953 2954 2956 2958 2960 2962 2965 2967 2970 2972 2974 2976 2977 2979 2980 2981 2982 2982 2984 2985 2986 2987 2988 2989 2990 2991 2992 2994 2995 2996 2997 2997 2998 2998 2999 2999 3000 3000 3001 3001 3002
2992 2991 2990 2989 2988 2987 2986 2985 2984 2984 2983 2983 2982 2982 2981 2981 2980 2979 2978 2977 2975 2973 2971 2970 2968 2966 2964 2961 2958 2955 2952 2949 2947 2946 2945 2945 2945 2946 2946 2947 2948 2949 2950 2951 2952 2954 2955 2956 2958 2960 2962 2964 2967 2970 2972 2974 2976 2977 2978 2980 2981 2982 2983 2984 2985 2986 2987 2988 2989 2990 2991 2992 2993 2994 2995 2996 2996 2997 2997 2998 2999 2999 3000 3000 3001 3001 3002
2991 2990 2989 2988 2988 2987 2986 2986 2985 2984 2984 2984 2983 2983 2982 2982 2982 2981 2980 2979 2977 2975 2974 2972 2970 2969 2967 2964 2962 2960 2958 2955 2953 2951 2950 2949 2949 2949 2949 2950 2951 2952 2953 2954 2955 2956 2958 2959 2962 2964 2966 2968 2970 2972 2974 2975 2977 2978 2979 2980 2981 2982 2984 2985 2986 2987 2988 2988 2989 2990 2991 2992 2993 2994 2995 2995 2996 2997 2997 2998 2999 2999 3000 3000 3001 3001 3001
2991 2990 2989 2988 2988 2987 2987 2986 2986 2986 2985 2985 2985 2984 2984 2984 2984 2983 2982 2981 2980 2978 2977 2975 2974 2972 2970 2968 2966 2964 2962 2961 2959 2958 2956 2955 2954 2954 2954 2955 2956 2957 2958 2959 2960 2961 2962 2964 2966 2968 2969 2970 2972 2974 2975 2977 2978 2979 2980 2981 2982 2983 2984 2985 2986 2987 2988 2989 2990 2990 2991 2992 2993 2994 2995 2995 2996 2996 2997 2998 2999 2999 3000 3000 3000 3001 3001
2991 2990 2990 2989 2989 2988 2988 2988 2988 2987 2987 2987 2987 2987 2987 2987 2986 2986 2985 2984 2983 2982 2980 2978 2977 2976 2974 2972 2970 2969 2967 2966 2964 2964 2963 2962 2961 2960 2960 2960 2961 2962 2962 2963 2964 2966 2967 2968 2969 2970 2971 2973 2974 2976 2977 2978 2979 2980 2981 2982 2982 2983 2984 2986 2987 2988 2988 2989 2990 2991 2991 2992 2993 2994 2994 2995 2996 2996 2997 2998 2998 2999 2999 3000 3000 3000 3000
2992 2991 2991 2990 2990 2990 2990 2990 2989 2989 2989 2989 2989 2989 2989 2989 2989 2988 2988 2987 2986 2984 2983 2981 2980 2979 2977 2976 2975 2974 2972 2971 2970 2970 2969 2968 2967 2966 2966 2965 2966 2966 2967 2968 2969 2969 2970 2971 2972 2973 2974 2975 2976 2977 2978 2979 2979 2981 2982 2983 2983 2984 2985 2986 2987 2988 2989 2990 2990 2991 2991 2992 2993 2993 2994 2995 2995 2996 2997 2997 2998 2998 2999 2999 2999 2999 2999
2993 2992 2992 2992 2991 2991 2991 2991 2991 2991 2991 2992 2992 2992 2992 2991 2991 2990 2990 2989 2988 2987 2986 2984 2983 2982 2981 2980 2979 2978 2976 2976 2975 2975 2974 2973 2972 2972 2971 2970 2970 2971 2971 2972 2973 2973 2973 2973 2974 2976 2976 2977 2978 2978 2979 2980 2981 2982 2983 2984 2984 2985 2986 2987 2988 2988 2989 2989 2990 2990 2991 2992 2992 2993 2994 2994 2995 2996 2996 2997 2997 2998 2998 2998 2998 2998 2998
2994 2993 2993 2993 2993 2993 2993 2993 2993 2993 2993 2993 2993 2993 2993 2993 2992 2992 2991 2991 2990 2989 2988 2987 2985 2984 2984 2983 2982 2981 2980 2979 2979 2978 2977 2977 2977 2976 2975 2975 2975 2975 2976 2976 2977 2977 2977 2977 2978 2979 2979 2980 2980 2981 2981 2981 2982 2983 2983 2984 2985 2986 2987 2987 2987 2988 2988 2989 2989 2990 2991 2992 2992 2993 2993 2994 2995 2995 2996 2996 2997 2997 2997 2997 2997 2997 2997
2994 2994 2994 2994 2994 2994 2994 2994 2994 2994 2994 2995 2995 2994 2994 2994 2993 2993 2993 2992 2991 2991 2990 2989 2988 2987 2986 2986 2985 2984 2983 2982 2982 2981 2981 2980 2980 2980 2979 2979 2979 2979 2980 2980 2980 2980 2981 2981 2981 2982 2982 2982 2983 2983 2983 2983 2984 2984 2984 2985 2986 2986 2987 2987 2987 2988 2988 2989 2990 2990 2991 2991 2992 2992 2993 2993 2994 2994 2995 2995 2995 2996 2996 2996 2996 2996 2995
2994 2994 2994 2994 2995 2995 2995 2995 2995 2995 2995 2995 2995 2995 2995 2995 2994 2994 2994 2993 2993 2992 2992 2991 2990 2989 2989 2988 2988 2987 2986 2985 2985 2984 2984 2983 2983 2982 2982 2982 2982 2982 2982 2983 2983 2983 2983 2984 2984 2984 2984 2984 2984 2984 2985 2985 2985 2985 2986 2986 2986 2986 2987 2987 2987 2988 2988 2989 2989 2990 2991 2991 2991 2992 2992 2992 2993 2993 2994 2994 2994 2994 2994 2994 2994 2994 2994
2994 2995 2995 2995 2995 2995 2995 2996 2996 2996 2996 2996 2996 2996 2996 2996 2995 2995 2995 2994 2994 2994 2993 2992 2992 2991 2991 2990 2990 2989 2988 2988 2987 2987 2986 2986 2985 2985 2985 2985 2985 2985 2985 2985 2985 2985 2985 2985 2985 2985 2985 2985 2985 2985 2985 2985 2986 2986 2986 2986 2986 2986 2987 2987 2987 2988 2988 2988 2989 2989 2990 2990 2990 2991 2991 2991 2992 2992 2992 2992 2992 2992 2992 2992 2992 2991 2991
2994 2994 2995 2995 2995 2995 2996 2996 2996 2996 2996 2997 2997 2997 2996 2996 2996 2996 2995 2995 2995 2994 2994 2993 2993 2993 2992 2992 2991 2991 2990 2990 2989 2989 2988 2988 2987 2987 2987 2986 2986 2986 2986 2986 2986 2986 2986 2986 2986 2986 2986 2985 2985 2985 2985 2985 2985 2985 2985 2985 2985 2986 2986 2986 2986 2987 2987 2987 2987 2988 2988 2988 2989 2989 2989 2989 2990 2990 2990 2989 2989 2989 2989 2989 2989 2989 2989
2993 2993 2994 2994 2995 2995 2996 2996 2996 2997 2997 2997 2997 2997 2997 2997 2996 2996 2996 2996 2995 2995 2995 2994 2994 2994 2994 2993 2993 2992 2992 2991 2991 2990 2990 2989 2989 2988 2988 2988 2987 2987 2987 2987 2987 2986 2986 2986 2986 2986 2985 2985 2985 2985 2985 2984 2984 2984 2984 2984 2984 2984 2985 2985 2985 2985 2985 2986 2986 2986 2986 2986 2986 2986 2987 2987 2987 2987 2987 2986 2986 2986 2986 2986 2986 2986 2986
2991 2991 2992 2993 2994 2994 2995 2996 2996 2997 2997 2997 2997 2997 2997 2997 2996 2996 2996 2996 2996 2996 2995 2995 2995 2994 2994 2994 2993 2993 2993 2992 2992 2991 2991 2990 2990 2989 2989 2988 2988 2988 2987 2987 2987 2986 2986 2986 2985 2985 2985 2984 2984 2984 2984 2983 2983 2983 2983 2983 2983 2983 2983 2984 2983 2983 2983 2984 2984 2984 2984 2984 2984 2984 2984 2984 2984 2984 2984 2983 2983 2983 2983 2983 2983 2982 2982
2989 2990 2990 2991 2992 2993 2994 2995 2995 2996 2996 2996 2996 2995 2996 2996 2996 2995 2996 2996 2996 2995 2995 2995 2995 2995 2994 2994 2994 2993 2993 2993 2992 2992 2991 2991 2990 2990 2989 2989 2988 2988 2987 2987 2986 2986 2986 2985 2985 2985 2984 2984 2984 2984 2983 2983 2983 2982 2982 2982 2982 2982 2982 2982 2982 2982 2982 2982 2982 2982 2981 2981 2981 2981 2981 2981 2981 2980 2980 2980 2980 2980 2980 2979 2979 2979 2979
2987 2988 2989 2989 2990 2991 2992 2993 2993 2994 2994 2994 2994 2994 2994 2995 2995 2995 2995 2995 2995 2995 2995 2995 2995 2994 2994 2994 2994 2993 2993 2993 2992 2992 2991 2991 2990 2990 2989 2989 2988 2987 2987 2986 2986 2985 2985 2985 2984 2984 2984 2983 2983 2983 2983 2982 2982 2982 2981 2981 2981 2981 2981 2980 2980 2980 2980 2980 2980 2980 2979 2979 2979 2979 2978 2978 2978 2978 2977 2977 2977 2977 2976 2976 2976 2976 2976